Weather History for 03809 - October, 2012

Change the Weather History Date:

Friday, October 26, 2012

  Actual Average Record
Temperature  
Mean Temperature 46 °F -  
Max Temperature 50 °F 52 °F - ()
Min Temperature 42 °F 44 °F - ()
Degree Days  
Heating Degree Days 19    
Moisture  
Dew Point 44 °F    
Average Humidity 84    
Maximum Humidity 94    
Minimum Humidity 68    
Precipitation  
Precipitation 0.00 in - - ()
Sea Level Pressure  
Sea Level Pressure 29.85 in    
Wind  
Wind Speed 18 mph ()    
Max Wind Speed 25 mph    
Max Gust Speed 39 mph    
Visibility 6.7 miles    
Events Rain    
T = Trace of Precipitation, MM = Missing Value Source: Averaged Metar Reports

Daily Weather History Graph

Daily Weather History Graph

Search for Another Location

Airport or City:

Trip Planner

Search our weather history database for the weather conditions in past years. The results will help you decide how hot, cold, wet, or windy it might be!

Date:

Astronomy

Oct. 26, 2012 Rise Set
Actual Time 8:01 AM BST 6:07 PM BST
Civil Twilight 7:27 AM BST 6:41 PM BST
Nautical Twilight 6:50 AM BST 7:18 PM BST
Astronomical Twilight 6:12 AM BST 7:56 PM BST
Moon 4:29 PM BST (10/26) 4:27 AM BST (10/26)
Length of Visible Light 11h 13m
Length of Day
10h 06m
Waxing Gibbous, 89% of the Moon is Illuminated
Oct 26
Waxing Gibbous
Oct 29
Full
Nov 7
Last Quarter
Nov 13
New
Nov 20
First Quarter

Hourly Weather History & Observations

Time (BST) Temp. Windchill Dew Point Humidity Pressure Visibility Wind Dir Wind Speed Gust Speed Precip Events Conditions
12:50 AM 53.6 °F - 51.8 °F 94% 29.83 in 4.3 mi East 20.7 mph 35.7 mph N/A   Haze
1:50 AM 53.6 °F - 50.0 °F 88% 29.83 in 4.3 mi East 23.0 mph 39.1 mph N/A   Haze
2:50 AM 53.6 °F - 50.0 °F 88% 29.83 in 4.3 mi East 25.3 mph 38.0 mph N/A   Haze
3:50 AM 51.8 °F - 48.2 °F 88% 29.83 in 6.2 mi East 23.0 mph 34.5 mph N/A Rain Light Rain
4:50 AM 51.8 °F - 48.2 °F 88% 29.83 in 6.2 mi ENE 16.1 mph - N/A Rain Light Rain
5:50 AM 50.0 °F - 46.4 °F 87% 29.83 in 6.2 mi ENE 21.9 mph - N/A   Overcast
6:50 AM 49 °F - 45 °F 83% 29.83 in 9 mi ENE 17.3 mph - -   Haze
6:50 AM 50.0 °F - 44.6 °F 82% 29.83 in 6.2 mi ENE 17.3 mph - N/A   Overcast
7:50 AM 48.2 °F - 44.6 °F 87% 29.80 in 6.2 mi ENE 19.6 mph - N/A   Haze
8:50 AM 48.2 °F - 44.6 °F 87% 29.83 in 6.2 mi ENE 21.9 mph - N/A   Haze
9:50 AM 48 °F - 45 °F 84% 29.85 in 6 mi NE 18.4 mph - -   Haze
9:50 AM 48.2 °F - 44.6 °F 87% 29.83 in 6.2 mi NE 18.4 mph - N/A   Haze
10:50 AM 48.2 °F - 44.6 °F 87% 29.83 in 6.2 mi ENE 24.2 mph - N/A   Haze
11:50 AM 48.2 °F - 44.6 °F 87% 29.83 in 2.5 mi ENE 23.0 mph - N/A Rain Light Rain
12:50 PM 49 °F - 47 °F 90% 29.84 in 12 mi ENE 21.9 mph - - Rain Light Rain
12:50 PM 50.0 °F - 46.4 °F 87% 29.83 in 6.2 mi ENE 21.9 mph - N/A   Mostly Cloudy
1:50 PM 50.0 °F - 46.4 °F 87% 29.83 in 6.2 mi ENE 20.7 mph - N/A   Mostly Cloudy
2:50 PM 50.0 °F - 46.4 °F 87% 29.83 in 6.2 mi NE 18.4 mph - N/A   Mostly Cloudy
3:50 PM 48 °F - 43 °F 77% 29.84 in 12 mi NE 23.0 mph - -   Mostly Cloudy
3:50 PM 48.2 °F - 42.8 °F 82% 29.83 in 6.2 mi NE 23.0 mph - N/A   Mostly Cloudy
4:50 PM 46.4 °F 38.5 °F 42.8 °F 87% 29.83 in 6.2 mi NE 21.9 mph - N/A   Mostly Cloudy
5:50 PM 46.4 °F 39.0 °F 41.0 °F 81% 29.83 in 6.2 mi NE 19.6 mph 31.1 mph N/A   Haze
6:50 PM 46 °F - 40 °F 73% 29.88 in 12 mi NE 15.0 mph - -   Mostly Cloudy
6:50 PM 46.4 °F 40.1 °F 41.0 °F 81% 29.86 in 6.2 mi NE 15.0 mph - N/A   Mostly Cloudy
7:50 PM 44.6 °F 37.8 °F 39.2 °F 81% 29.89 in 6.2 mi NE 15.0 mph 26.5 mph N/A   Mostly Cloudy
8:50 PM 42.8 °F 35.8 °F 39.2 °F 87% 29.89 in 6.2 mi ENE 13.8 mph - N/A   Mostly Cloudy
9:50 PM 44 °F - 37 °F 68% 29.94 in 12 mi NE 15.0 mph - -   Mostly Cloudy
9:50 PM 44.6 °F 37.8 °F 37.4 °F 76% 29.92 in 6.2 mi NE 15.0 mph - N/A   Mostly Cloudy
10:50 PM 42.8 °F 34.8 °F 35.6 °F 76% 29.92 in 6.2 mi NE 17.3 mph 28.8 mph N/A   Mostly Cloudy
11:50 PM 42.8 °F 35.4 °F 33.8 °F 70% 29.95 in 6.2 mi NE 15.0 mph - N/A   Mostly Cloudy